Aeroporto :
LOGIN :

Iscrizione | Disclaimer

   EN    FR    IT 

 










Sommario :    VFR   VFR Marginale   IFR   IFR Intensivo   IFR Molto Intensivo
Visibilità : 
Base nubi : 
>= 8 km
>= 3000ft
5 / 8 km
1000 / 3000 ft
1500m / 5 km
500 / 1000 ft
800 / 1500m
200 / 500 ft
< 800m
< 200 ft
Simboli :   Temporali  Nebbia  Neve Forte  Precipitazioni Forti  Vento > 20 kt
SIGMETs :   Varie  Temporali  Ghiacco  Turbolenza  Onda orograficha  Ceneri Vulcaniche







- Altitudine del aeroporto : 538 ft
- Codice IATA : TNF
- Carte del aeroporto


LFPN - Toussus Le Noble

ULTIMO METAR :
  • 220830Z AUTO VRB01KT CAVOK 19/11 Q1007 NOSIG

METARs OBSOLETI :
  • 220800Z AUTO 00000KT CAVOK 18/11 Q1007 NOSIG
  • 220730Z AUTO 00000KT CAVOK 16/10 Q1007 NOSIG
  • 220700Z AUTO 23004KT 200V260 CAVOK 15/10 Q1008 NOSIG
  • 220630Z AUTO 20004KT CAVOK 14/09 Q1008 NOSIG
  • 220600Z AUTO 17003KT CAVOK 11/08 Q1008 NOSIG

TAF TAF LFPN
Valido dal 22 a 09 ore il 22 a 18 ore UTC


220800Z 2209/2218 VRB03KT CAVOK
ATIS : +33 1 39 56 54 70
Nessun NOTAM noto per questo aeroporto.



MetMap, La meteo Aeronautica in un colpo d'occhio ! - Copyright ORBIFLY Dicembre 2007 - Disclaimer

ORBIFLY MET'MAP TEAM :

Programmazione e sviluppo : Alexandra Zaïnal
Concezione e sviluppo : Baudouin d'Aumeries
Co-Programmazione e sviluppo : Marc-Olivier Méhu
Supporto tecnico e logistico : Manuel Goepfert
Aiuto per la traduzione : Arnaldo La Scala

Contatto : metmap@orbifly.com




FONTI E CREDITI :

   NOAA